North Myrtle Beach, SC

9:08 AM EST on December 11, 2019 (GMT -0500)
Grand Strand

Weather History for KCRE - October, 2019

Change the Weather History Date:

Friday, October 11, 2019

  Actual Average Record
Temperature  
Mean Temperature 68 °F 67 °F  
Max Temperature 81 °F 77 °F 87 °F (1990)
Min Temperature 54 °F 58 °F 40 °F (2000)
Degree Days  
Heating Degree Days 0 2  
Month to date heating degree days 0 12  
Since 1 July heating degree days 0 16  
Cooling Degree Days 3 4  
Month to date cooling degree days 104 54  
Year to date cooling degree days 2287 1838  
Growing Degree Days 18 (Base 50)    
Moisture  
Dew Point 56 °F    
Average Humidity 70    
Maximum Humidity 100    
Minimum Humidity 39    
Precipitation  
Precipitation 0.00 in 0.13 in 1.30 in (1990)
Month to date precipitation 0.03 1.54  
Year to date precipitation 42.60 43.17  
Sea Level Pressure  
Sea Level Pressure 30.09 in    
Wind  
Wind Speed 4 mph (North)    
Max Wind Speed 14 mph    
Max Gust Speed 18 mph    
Visibility 10 miles    
Events      
T = Trace of Precipitation, MM = Missing Value Source: NWS Daily Summary

Daily Weather History Graph

Daily Weather History Graph

Search for Another Location

Airport or City:

Astronomy

Oct. 11, 2019 Rise Set
Actual Time 7:16 AM EDT 6:46 PM EDT
Civil Twilight 6:51 AM EDT 7:11 PM EDT
Nautical Twilight 6:22 AM EDT 7:40 PM EDT
Astronomical Twilight 5:53 AM EDT 8:09 PM EDT
Moon 6:05 PM EDT 5:05 AM EDT
Length of Visible Light 12h 19m
Length of Day
11h 29m
Waxing Gibbous, 96% of the Moon is Illuminated
Oct 11
Waxing Gibbous
Oct 13
Full
Oct 21
Last Quarter
Oct 27
New
Nov 4
First Quarter

Hourly Weather History & Observations

Time (EDT) Temp. Heat Index Dew Point Humidity Pressure Visibility Wind Dir Wind Speed Gust Speed Precip Events Conditions
12:53 AM 57.0 °F - 55.9 °F 96% 30.13 in 10.0 mi Calm Calm - N/A   Clear
1:53 AM 57.0 °F - 55.0 °F 93% 30.12 in 10.0 mi NNE 3.5 mph - N/A   Clear
2:53 AM 55.9 °F - 55.0 °F 97% 30.11 in 10.0 mi North 3.5 mph - N/A   Clear
3:53 AM 55.0 °F - 54.0 °F 96% 30.10 in 10.0 mi Calm Calm - N/A   Clear
4:53 AM 55.0 °F - 54.0 °F 96% 30.11 in 10.0 mi Calm Calm - N/A   Clear
5:53 AM 57.0 °F - 55.0 °F 93% 30.10 in 10.0 mi NNW 5.8 mph - N/A   Clear
6:53 AM 55.9 °F - 54.0 °F 93% 30.12 in 10.0 mi NNW 4.6 mph - N/A   Clear
7:53 AM 57.9 °F - 55.0 °F 90% 30.12 in 10.0 mi North 6.9 mph - N/A   Clear
8:53 AM 62.1 °F - 55.9 °F 80% 30.13 in 10.0 mi North 5.8 mph - N/A   Clear
9:53 AM 68.0 °F - 57.0 °F 68% 30.14 in 10.0 mi North 5.8 mph - N/A   Clear
10:53 AM 73.0 °F - 55.9 °F 55% 30.14 in 10.0 mi Variable 5.8 mph 17.3 mph N/A   Clear
11:53 AM 77.0 °F - 55.0 °F 47% 30.14 in 10.0 mi NNE 10.4 mph 17.3 mph N/A   Clear
12:53 PM 77.0 °F - 55.0 °F 47% 30.11 in 10.0 mi North 9.2 mph - N/A   Clear
1:53 PM 79.0 °F - 55.0 °F 44% 30.07 in 10.0 mi Variable 6.9 mph - N/A   Clear
2:53 PM 80.1 °F 79.9 °F 53.1 °F 39% 30.05 in 10.0 mi NNW 8.1 mph 18.4 mph N/A   Clear
3:53 PM 80.1 °F 80.0 °F 54.0 °F 40% 30.04 in 10.0 mi North 10.4 mph - N/A   Partly Cloudy
4:53 PM 81.0 °F 80.5 °F 54.0 °F 39% 30.03 in 10.0 mi North 4.6 mph - N/A   Clear
5:53 PM 79.0 °F - 54.0 °F 42% 30.02 in 10.0 mi NNE 3.5 mph - N/A   Clear
6:53 PM 70.0 °F - 59.0 °F 68% 30.03 in 10.0 mi Calm Calm - N/A   Clear
7:53 PM 64.9 °F - 57.9 °F 78% 30.04 in 10.0 mi Calm Calm - N/A   Clear
8:53 PM 62.1 °F - 57.9 °F 86% 30.05 in 10.0 mi Calm Calm - N/A   Clear
9:53 PM 62.1 °F - 59.0 °F 90% 30.06 in 10.0 mi Calm Calm - N/A   Clear
10:53 PM 60.1 °F - 57.9 °F 93% 30.06 in 10.0 mi Calm Calm - N/A   Clear
11:53 PM 60.1 °F - 57.0 °F 90% 30.05 in 10.0 mi Calm Calm - N/A   Clear